Total_Precipitation_Accumulation
0.01 0.03 0.08 0.10 0.11 0.13 0.13 0.13 0.14 0.15 0.15 0.12 0.11 0.10 0.10 0.10 0.14 0.19 0.20 0.14 0.10 0.10 0.10 0.18 0.23 0.18 0.20 0.25 0.29 0.34 0.40 0.41 0.33 0.25 0.25 0.26 0.22 0.22 0.29 0.36 0.44 0.49 0.27
0.00 0.02 0.08 0.12 0.12 0.13 0.13 0.11 0.13 0.15 0.12 0.10 0.10 0.10 0.09 0.11 0.17 0.17 0.14 0.09 0.07 0.07 0.10 0.18 0.24 0.21 0.22 0.30 0.40 0.49 0.53 0.46 0.37 0.27 0.32 0.34 0.29 0.27 0.32 0.36 0.49 0.47 0.26
0.00 0.01 0.05 0.10 0.12 0.11 0.11 0.10 0.17 0.18 0.11 0.10 0.11 0.10 0.08 0.08 0.09 0.09 0.09 0.07 0.05 0.05 0.07 0.16 0.23 0.23 0.25 0.35 0.46 0.49 0.50 0.47 0.38 0.33 0.57 0.97 0.68 0.39 0.35 0.43 0.43 0.30 0.26
0.00 0.01 0.03 0.08 0.14 0.13 0.10 0.14 0.28 0.27 0.18 0.13 0.11 0.10 0.06 0.05 0.10 0.17 0.17 0.06 0.05 0.05 0.06 0.13 0.21 0.21 0.24 0.34 0.40 0.38 0.38 0.36 0.38 0.50 0.94 1.22 1.02 0.60 0.56 0.55 0.46 0.33 0.28
0.00 0.02 0.12 0.15 0.13 0.12 0.15 0.25 0.38 0.34 0.28 0.19 0.10 0.06 0.05 0.05 0.08 0.15 0.11 0.06 0.03 0.04 0.05 0.11 0.18 0.19 0.20 0.24 0.28 0.29 0.35 0.45 0.55 0.68 0.93 0.98 0.94 0.71 0.64 0.59 0.53 0.39 0.34
0.00 0.03 0.10 0.15 0.13 0.14 0.22 0.34 0.37 0.39 0.43 0.27 0.12 0.07 0.08 0.08 0.10 0.13 0.11 0.06 0.03 0.02 0.04 0.06 0.11 0.17 0.19 0.22 0.24 0.28 0.39 0.54 0.65 0.75 0.88 0.87 0.79 0.61 0.55 0.53 0.52 0.48 0.40
0.02 0.03 0.05 0.16 0.16 0.18 0.28 0.36 0.34 0.38 0.44 0.31 0.12 0.12 0.13 0.08 0.08 0.11 0.13 0.05 0.02 0.01 0.01 0.03 0.07 0.11 0.16 0.21 0.22 0.27 0.34 0.34 0.48 0.65 0.88 0.90 0.63 0.43 0.44 0.47 0.48 0.47 0.44
0.08 0.05 0.07 0.15 0.16 0.20 0.29 0.39 0.32 0.33 0.36 0.25 0.14 0.14 0.11 0.09 0.09 0.11 0.09 0.04 0.01 0.00 0.00 0.02 0.07 0.10 0.12 0.16 0.21 0.27 0.29 0.25 0.35 0.41 0.48 0.68 0.61 0.45 0.36 0.43 0.47 0.42 0.39
0.25 0.20 0.16 0.16 0.15 0.19 0.28 0.38 0.41 0.39 0.35 0.20 0.15 0.12 0.11 0.11 0.08 0.06 0.04 0.02 0.01 0.00 0.00 0.01 0.04 0.06 0.07 0.10 0.15 0.20 0.24 0.21 0.30 0.33 0.31 0.45 0.45 0.35 0.29 0.34 0.44 0.49 0.45
0.27 0.26 0.24 0.25 0.27 0.32 0.31 0.38 0.51 0.55 0.44 0.28 0.19 0.16 0.13 0.09 0.06 0.04 0.01 0.01 0.00 0.00 0.00 0.01 0.01 0.03 0.05 0.06 0.11 0.17 0.19 0.21 0.29 0.27 0.25 0.30 0.37 0.33 0.29 0.25 0.27 0.29 0.29
0.25 0.24 0.26 0.31 0.36 0.43 0.49 0.49 0.66 0.71 0.58 0.36 0.24 0.18 0.15 0.14 0.17 0.14 0.04 0.02 0.01 0.00 0.00 0.01 0.01 0.01 0.02 0.03 0.09 0.15 0.13 0.21 0.30 0.24 0.19 0.21 0.24 0.23 0.21 0.17 0.14 0.14 0.13
0.31 0.30 0.28 0.29 0.35 0.42 0.48 0.79 0.99 0.81 0.69 0.45 0.45 0.31 0.29 0.33 0.36 0.23 0.11 0.07 0.04 0.02 0.01 0.01 0.01 0.01 0.01 0.00 0.03 0.07 0.10 0.18 0.26 0.18 0.12 0.16 0.17 0.13 0.10 0.09 0.07 0.07 0.06
0.33 0.31 0.28 0.25 0.25 0.31 0.47 0.73 0.97 1.05 0.99 0.87 0.64 0.44 0.44 0.30 0.21 0.14 0.10 0.11 0.09 0.04 0.01 0.01 0.01 0.00 0.00 0.01 0.02 0.04 0.09 0.13 0.24 0.21 0.11 0.13 0.14 0.13 0.10 0.06 0.04 0.04 0.04
0.40 0.39 0.35 0.33 0.28 0.28 0.33 0.43 0.56 0.64 0.67 0.65 0.46 0.32 0.42 0.39 0.27 0.22 0.18 0.16 0.11 0.06 0.03 0.02 0.01 0.00 0.00 0.01 0.03 0.05 0.08 0.11 0.24 0.27 0.18 0.14 0.15 0.17 0.14 0.08 0.05 0.04 0.05
0.48 0.54 0.51 0.42 0.39 0.36 0.37 0.42 0.45 0.55 0.55 0.50 0.48 0.39 0.39 0.41 0.35 0.28 0.19 0.15 0.11 0.09 0.05 0.02 0.01 0.01 0.01 0.02 0.05 0.08 0.09 0.14 0.23 0.21 0.21 0.25 0.27 0.30 0.27 0.22 0.14 0.08 0.07
0.52 0.58 0.63 0.55 0.50 0.45 0.42 0.43 0.46 0.54 0.58 0.56 0.48 0.40 0.43 0.48 0.41 0.32 0.23 0.19 0.17 0.14 0.13 0.06 0.02 0.02 0.01 0.02 0.02 0.04 0.07 0.11 0.17 0.17 0.18 0.27 0.36 0.33 0.36 0.38 0.30 0.20 0.16
0.53 0.56 0.59 0.60 0.59 0.57 0.56 0.54 0.52 0.57 0.66 0.64 0.56 0.47 0.43 0.46 0.46 0.42 0.34 0.28 0.24 0.22 0.18 0.14 0.07 0.04 0.03 0.02 0.01 0.01 0.02 0.04 0.04 0.06 0.06 0.08 0.20 0.33 0.40 0.42 0.36 0.30 0.24
0.46 0.47 0.52 0.54 0.59 0.65 0.67 0.68 0.70 0.69 0.74 0.69 0.66 0.57 0.48 0.46 0.45 0.50 0.46 0.39 0.31 0.29 0.27 0.23 0.13 0.08 0.04 0.02 0.01 0.00 0.01 0.01 0.02 0.03 0.03 0.03 0.07 0.15 0.28 0.29 0.28 0.30 0.27
0.41 0.41 0.44 0.48 0.51 0.62 0.70 0.73 0.81 0.83 0.84 0.80 0.77 0.67 0.63 0.65 0.64 0.69 0.70 0.63 0.53 0.44 0.35 0.24 0.16 0.10 0.05 0.04 0.02 0.01 0.00 0.01 0.01 0.02 0.02 0.02 0.02 0.05 0.11 0.09 0.09 0.11 0.15
0.32 0.34 0.38 0.43 0.45 0.53 0.68 0.80 0.95 1.05 1.02 1.03 0.96 0.83 0.84 0.96 1.06 1.12 1.04 1.01 0.93 0.69 0.53 0.37 0.29 0.21 0.13 0.09 0.06 0.04 0.02 0.02 0.02 0.02 0.02 0.02 0.02 0.02 0.02 0.02 0.05 0.04 0.05
0.22 0.25 0.31 0.34 0.42 0.50 0.58 0.72 0.94 1.21 1.31 1.39 1.34 1.16 1.10 1.20 1.41 1.55 1.45 1.40 1.27 1.04 0.89 0.78 0.79 0.71 0.45 0.20 0.20 0.16 0.08 0.04 0.04 0.04 0.02 0.02 0.03 0.04 0.02 0.01 0.02 0.05 0.03
0.15 0.17 0.22 0.30 0.39 0.48 0.57 0.74 0.90 1.05 1.05 1.21 1.35 1.31 1.22 1.20 1.34 1.46 1.65 1.63 1.45 1.33 1.36 1.31 1.42 1.41 0.93 0.47 0.43 0.48 0.33 0.23 0.10 0.06 0.04 0.03 0.04 0.06 0.05 0.03 0.02 0.02 0.03
0.10 0.12 0.15 0.22 0.32 0.45 0.61 0.84 1.05 1.24 1.32 1.37 1.29 1.36 1.36 1.27 1.30 1.38 1.53 1.65 1.58 1.54 1.53 1.55 1.72 1.94 1.58 1.03 0.71 0.76 0.63 0.58 0.39 0.14 0.07 0.07 0.07 0.06 0.07 0.07 0.06 0.06 0.06
0.08 0.08 0.12 0.20 0.35 0.56 0.77 1.03 1.28 1.48 1.51 1.40 1.44 1.46 1.33 1.25 1.21 1.27 1.39 1.51 1.59 1.56 1.59 1.57 1.52 1.83 1.96 1.59 1.24 0.90 0.67 0.59 0.54 0.42 0.21 0.13 0.13 0.10 0.09 0.09 0.07 0.07 0.09
0.14 0.16 0.23 0.43 0.67 0.93 1.14 1.40 1.68 1.69 1.57 1.47 1.47 1.44 1.37 1.36 1.33 1.31 1.43 1.48 1.48 1.51 1.56 1.75 1.82 1.95 2.01 1.85 1.65 1.41 1.19 0.95 0.61 0.60 0.59 0.37 0.25 0.20 0.15 0.12 0.10 0.10 0.09
0.44 0.58 0.79 1.05 1.24 1.33 1.45 1.60 1.72 1.69 1.70 1.64 1.45 1.35 1.33 1.36 1.40 1.46 1.51 1.48 1.43 1.43 1.51 1.66 1.82 1.93 2.07 2.09 1.83 1.56 1.41 1.24 1.09 0.94 0.73 0.62 0.50 0.34 0.29 0.25 0.19 0.16 0.17